Rantoul, IL

10:22 AM CST on December 06, 2016 (GMT -0600)
Rantoul

Weather History for KTIP - April, 2013

Change the Weather History Date:

Saturday, April 27, 2013

  Actual Average (KCMI) Record (KCMI)
Temperature  
Mean Temperature 54 °F 56 °F  
Max Temperature 65 °F 68 °F 84 °F (2001)
Min Temperature 45 °F 44 °F 35 °F (2012)
Degree Days  
Heating Degree Days 10 9  
Month to date heating degree days 382  
Since 1 July heating degree days 5640  
Cooling Degree Days 0 1  
Month to date cooling degree days 1  
Year to date cooling degree days 2  
Growing Degree Days 4 (Base 50)    
Moisture  
Dew Point 47 °F    
Average Humidity 75    
Maximum Humidity 94    
Minimum Humidity 38    
Precipitation  
Precipitation 0.23 in 0.14 in 1.47 in (2002)
Month to date precipitation 3.31  
Year to date precipitation 10.13  
Sea Level Pressure  
Sea Level Pressure 30.16 in    
Wind  
Wind Speed 6 mph (ESE)    
Max Wind Speed 16 mph    
Max Gust Speed 21 mph    
Visibility 8 miles    
Events Rain    
T = Trace of Precipitation, MM = Missing Value Source: NWS Daily Summary

Daily Weather History Graph

Daily Weather History Graph

Search for Another Location

Airport or City:

Trip Planner

Search our weather history database for the weather conditions in past years. The results will help you decide how hot, cold, wet, or windy it might be!

Date:

Astronomy

Apr. 27, 2013 Rise Set
Actual Time 5:56 AM CDT 7:44 PM CDT
Civil Twilight 5:27 AM CDT 8:13 PM CDT
Nautical Twilight 4:52 AM CDT 8:48 PM CDT
Astronomical Twilight 4:14 AM CDT 9:26 PM CDT
Moon 10:13 PM CDT (4/27) 7:15 AM CDT (4/27)
Length of Visible Light 14h 45m
Length of Day
13h 47m
Waning Gibbous, 95% of the Moon is Illuminated
Apr 27
Waning Gibbous
May 2
Last Quarter
May 9
New
May 17
First Quarter
May 24
Full

Hourly Weather History & Observations

Time (CDT) Temp. Windchill Dew Point Humidity Pressure Visibility Wind Dir Wind Speed Gust Speed Precip Events Conditions
12:15 AM 51.3 °F - 46.2 °F 83% 30.32 in 10.0 mi SW 3.5 mph - N/A   Clear
12:35 AM 50.0 °F - 45.1 °F 83% 30.32 in 10.0 mi Calm Calm - N/A   Clear
12:55 AM 49.3 °F - 44.6 °F 84% 30.32 in 10.0 mi WSW 3.5 mph - N/A   Clear
1:35 AM 48.4 °F - 44.2 °F 86% 30.31 in 10.0 mi Calm Calm - N/A   Clear
1:55 AM 48.4 °F - 44.1 °F 85% 30.30 in 10.0 mi Calm Calm - N/A   Clear
2:15 AM 46.4 °F 43.5 °F 43.0 °F 88% 30.29 in 10.0 mi East 5.8 mph - N/A   Clear
2:55 AM 46.9 °F - 43.7 °F 88% 30.30 in 7.0 mi Calm Calm - N/A   Clear
3:15 AM 45.9 °F - 43.0 °F 90% 30.29 in 5.0 mi Calm Calm - N/A   Clear
3:35 AM 46.4 °F - 43.2 °F 88% 30.29 in 7.0 mi Calm Calm - N/A   Scattered Clouds
3:55 AM 46.4 °F - 43.2 °F 88% 30.29 in 5.0 mi Calm Calm - N/A   Scattered Clouds
4:15 AM 45.7 °F - 43.0 °F 90% 30.28 in 5.0 mi Calm Calm - N/A   Scattered Clouds
4:55 AM 45.5 °F - 42.4 °F 89% 30.27 in 5.0 mi Calm Calm - N/A   Clear
5:15 AM 45.0 °F 42.6 °F 42.1 °F 90% 30.26 in 5.0 mi ENE 4.6 mph - N/A   Clear
6:55 AM 47.1 °F - 44.1 °F 89% 30.26 in 5.0 mi Calm Calm - N/A   Clear
7:15 AM 48.7 °F - 44.8 °F 86% 30.26 in 7.0 mi East 4.6 mph - N/A   Clear
7:35 AM 49.8 °F - 45.5 °F 85% 30.25 in 7.0 mi East 4.6 mph - N/A   Clear
7:55 AM 52.2 °F - 45.9 °F 79% 30.25 in 10.0 mi ENE 5.8 mph - N/A   Clear
8:15 AM 54.5 °F - 46.2 °F 74% 30.24 in 10.0 mi East 8.1 mph - N/A   Clear
8:35 AM 55.9 °F - 45.7 °F 68% 30.24 in 10.0 mi East 6.9 mph - N/A   Clear
8:55 AM 57.4 °F - 45.1 °F 64% 30.23 in 10.0 mi East 9.2 mph - N/A   Clear
9:15 AM 59.0 °F - 44.6 °F 59% 30.22 in 10.0 mi ESE 11.5 mph - N/A   Clear
9:35 AM 60.1 °F - 43.3 °F 54% 30.22 in 10.0 mi East 12.7 mph - N/A   Clear
9:55 AM 61.0 °F - 43.3 °F 52% 30.22 in 10.0 mi East 9.2 mph - N/A   Clear
10:15 AM 62.6 °F - 43.2 °F 49% 30.21 in 10.0 mi ESE 11.5 mph - N/A   Clear
10:35 AM 63.1 °F - 41.2 °F 45% 30.21 in 10.0 mi ESE 12.7 mph - N/A   Clear
10:55 AM 63.5 °F - 39.7 °F 42% 30.21 in 10.0 mi ESE 12.7 mph 17.3 mph N/A   Clear
11:15 AM 63.9 °F - 37.8 °F 38% 30.21 in 10.0 mi SE 16.1 mph - N/A   Scattered Clouds
11:35 AM 63.9 °F - 38.5 °F 39% 30.21 in 10.0 mi SE 13.8 mph 20.7 mph N/A   Scattered Clouds
12:15 PM 64.8 °F - 39.2 °F 39% 30.19 in 10.0 mi ESE 15.0 mph 19.6 mph N/A   Scattered Clouds
12:35 PM 64.8 °F - 40.6 °F 41% 30.19 in 10.0 mi SE 15.0 mph 19.6 mph N/A   Scattered Clouds
12:55 PM 64.2 °F - 39.9 °F 41% 30.17 in 10.0 mi SE 16.1 mph 20.7 mph N/A   Scattered Clouds
1:15 PM 64.6 °F - 41.0 °F 42% 30.16 in 10.0 mi SE 11.5 mph 18.4 mph N/A   Scattered Clouds
1:35 PM 64.2 °F - 41.9 °F 44% 30.15 in 10.0 mi SE 13.8 mph 19.6 mph N/A   Mostly Cloudy
1:55 PM 63.5 °F - 42.1 °F 46% 30.15 in 10.0 mi SSE 15.0 mph - N/A   Mostly Cloudy
2:15 PM 63.1 °F - 43.0 °F 48% 30.14 in 10.0 mi SSE 13.8 mph - N/A   Overcast
2:35 PM 62.8 °F - 45.0 °F 52% 30.13 in 10.0 mi SSE 16.1 mph 19.6 mph N/A   Scattered Clouds
3:15 PM 61.2 °F - 47.7 °F 61% 30.12 in 10.0 mi SSE 13.8 mph - N/A   Overcast
3:35 PM 60.3 °F - 47.8 °F 64% 30.11 in 10.0 mi SE 13.8 mph - N/A   Overcast
3:55 PM 59.9 °F - 47.5 °F 64% 30.11 in 10.0 mi SSE 16.1 mph - N/A   Light Drizzle
4:15 PM 57.9 °F - 50.9 °F 77% 30.11 in 10.0 mi SSE 11.5 mph - N/A Rain Light Rain
4:35 PM 57.4 °F - 50.7 °F 78% 30.11 in 10.0 mi SE 9.2 mph - N/A Rain Rain
4:55 PM 57.2 °F - 51.6 °F 82% 30.10 in 7.0 mi SE 9.2 mph - 0.01 in Rain Light Rain
5:15 PM 56.3 °F - 51.8 °F 85% 30.10 in 5.0 mi SSE 6.9 mph - 0.02 in Rain Rain
5:35 PM 55.9 °F - 52.0 °F 87% 30.09 in 7.0 mi SE 5.8 mph - 0.05 in Rain Rain
5:55 PM 55.4 °F - 51.8 °F 88% 30.09 in 5.0 mi SE 5.8 mph - 0.09 in Rain Rain
6:35 PM 55.0 °F - 52.3 °F 91% 30.08 in 5.0 mi ESE 3.5 mph - 0.07 in Rain Rain
6:55 PM 54.9 °F - 52.3 °F 91% 30.07 in 5.0 mi East 3.5 mph - 0.08 in Rain Light Rain
7:15 PM 54.7 °F - 52.3 °F 92% 30.06 in 5.0 mi ENE 4.6 mph - 0.01 in Rain Rain
7:35 PM 54.7 °F - 52.5 °F 92% 30.05 in 5.0 mi ENE 5.8 mph - 0.02 in Rain Light Rain
7:55 PM 54.5 °F - 52.0 °F 91% 30.04 in 7.0 mi East 5.8 mph - 0.02 in   Light Drizzle
8:35 PM 54.5 °F - 52.0 °F 91% 30.03 in 5.0 mi ENE 6.9 mph - N/A Rain Light Rain
8:55 PM 54.5 °F - 52.2 °F 92% 30.04 in 5.0 mi East 5.8 mph - 0.01 in Rain Light Rain
9:15 PM 54.1 °F - 52.0 °F 92% 30.03 in 4.0 mi East 6.9 mph - N/A Rain Light Rain
9:35 PM 54.5 °F - 52.3 °F 92% 30.02 in 3.0 mi ENE 6.9 mph - 0.01 in   Light Drizzle
9:55 PM 54.5 °F - 52.3 °F 92% 30.01 in 4.0 mi ENE 5.8 mph - 0.01 in   Overcast
10:15 PM 54.5 °F - 52.7 °F 94% 30.00 in 4.0 mi East 6.9 mph - N/A   Overcast
10:35 PM 54.7 °F - 52.7 °F 93% 30.00 in 5.0 mi East 6.9 mph - N/A   Overcast
10:55 PM 54.7 °F - 52.7 °F 93% 29.99 in 2.0 mi East 6.9 mph - N/A Rain Rain
11:15 PM 54.9 °F - 52.9 °F 93% 29.99 in 2.5 mi East 8.1 mph - N/A   Drizzle
11:35 PM 54.9 °F - 53.1 °F 94% 29.98 in 2.5 mi East 9.2 mph - 0.01 in   Drizzle
11:55 PM 54.9 °F - 53.1 °F 94% 29.97 in 3.0 mi ENE 6.9 mph - 0.01 in   Light Drizzle